Weather History for Moses Lake, WA

Change the Weather History Date:

Wednesday, May 13, 2009

  Actual Average Record
Temperature  
Mean Temperature 48 °F 58 °F  
Max Temperature 59 °F 73 °F 87 °F (1997)
Min Temperature 36 °F 44 °F 28 °F (2006)
Degree Days  
Heating Degree Days 17 7  
Month to date heating degree days 153 118  
Since 1 July heating degree days 6124 5735  
Cooling Degree Days 0 1  
Month to date cooling degree days 0 3  
Year to date cooling degree days 0 4  
Moisture  
Dew Point 33 °F    
Average Humidity 61    
Maximum Humidity 93    
Minimum Humidity 28    
Precipitation  
Precipitation 0.12 in 0.02 in 0.01 in (2013)
Month to date precipitation 0.38 0.25  
Year to date precipitation 2.42 3.67  
Sea Level Pressure  
Sea Level Pressure 30.04 in    
Wind  
Wind Speed 10 mph (South)    
Max Wind Speed 23 mph    
Max Gust Speed 31 mph    
Visibility 10 miles    
Events Rain    
T = Trace of Precipitation, MM = Missing Value Source: NWS Daily Summary

Daily Weather History Graph

Daily Weather History Graph

Search for Another Location

Airport:

Trip Planner

Search our weather history database for the weather conditions in past years. The results will help you decide how hot, cold, wet, or windy it might be!

Date:

Astronomy

May. 13, 2009 Rise Set
Actual Time 5:23 AM PDT 8:24 PM PDT
Civil Twilight 4:47 AM PDT 9:00 PM PDT
Nautical Twilight 4:01 AM PDT 9:47 PM PDT
Astronomical Twilight 3:04 AM PDT 10:44 PM PDT
Moon 12:14 AM PDT (5/13) 8:30 AM PDT (5/13)
Length of Visible Light 16h 13m
Length of Day
15h 01m
Waning Gibbous, 81% of the Moon is Illuminated
May 13
Waning Gibbous
May 17
Last Quarter
May 24
New
May 30
First Quarter
Jun 7
Full

Hourly Weather History & Observations

Time (PDT) Temp. Windchill Dew Point Humidity Pressure Visibility Wind Dir Wind Speed Gust Speed Precip Events Conditions
12:52 AM 42.1 °F 38.4 °F 28.0 °F 58% 30.09 in 10.0 mi WSW 5.8 mph - N/A   Clear
1:52 AM 43.0 °F 37.7 °F 28.0 °F 56% 30.11 in 10.0 mi SW 9.2 mph - N/A   Clear
2:52 AM 42.1 °F 37.1 °F 30.0 °F 62% 30.12 in 10.0 mi SW 8.1 mph - N/A   Clear
3:52 AM 39.9 °F 34.5 °F 32.0 °F 73% 30.14 in 10.0 mi SW 8.1 mph - N/A   Clear
4:52 AM 39.9 °F 35.1 °F 30.9 °F 70% 30.13 in 10.0 mi WSW 6.9 mph - N/A   Clear
5:52 AM 37.0 °F 34.5 °F 30.9 °F 79% 30.14 in 10.0 mi SSE 3.5 mph - N/A   Clear
6:52 AM 39.0 °F 34.0 °F 33.1 °F 79% 30.15 in 10.0 mi SSE 6.9 mph - N/A   Clear
7:52 AM 43.0 °F 37.2 °F 34.0 °F 71% 30.15 in 10.0 mi SSE 10.4 mph - N/A   Clear
8:52 AM 48.0 °F - 33.1 °F 56% 30.15 in 10.0 mi South 11.5 mph - N/A   Clear
9:52 AM 50.0 °F - 30.9 °F 48% 30.14 in 10.0 mi South 10.4 mph - N/A   Clear
10:52 AM 53.1 °F - 30.9 °F 43% 30.12 in 10.0 mi SSE 9.2 mph 17.3 mph N/A   Clear
11:52 AM 55.0 °F - 30.0 °F 38% 30.09 in 10.0 mi SSE 12.7 mph 18.4 mph N/A   Clear
12:52 PM 55.9 °F - 28.0 °F 34% 30.06 in 10.0 mi South 11.5 mph - N/A   Clear
1:52 PM 57.9 °F - 25.0 °F 28% 30.03 in 10.0 mi SSE 13.8 mph 20.7 mph N/A   Clear
2:52 PM 55.9 °F - 26.1 °F 32% 30.01 in 10.0 mi South 11.5 mph 18.4 mph N/A   Clear
3:52 PM 55.9 °F - 27.0 °F 33% 29.98 in 10.0 mi South 9.2 mph - N/A   Clear
4:52 PM 57.0 °F - 25.0 °F 29% 29.96 in 10.0 mi South 16.1 mph 21.9 mph N/A   Mostly Cloudy
5:52 PM 55.9 °F - 30.9 °F 39% 30.08 in 10.0 mi SSW 12.7 mph 27.6 mph N/A   Scattered Clouds
6:52 PM 50.0 °F - 39.0 °F 66% 29.92 in 6.0 mi South 17.3 mph 21.9 mph 0.00 in Rain Light Rain
7:52 PM 46.9 °F - 44.1 °F 90% 29.89 in 6.0 mi SSE 8.1 mph - 0.05 in Rain Light Rain
8:52 PM 46.0 °F 43.1 °F 45.0 °F 96% 30.01 in 10.0 mi SE 5.8 mph - 0.05 in Rain Light Rain
9:52 PM 46.0 °F 42.5 °F 45.0 °F 96% 29.84 in 10.0 mi SE 6.9 mph - 0.01 in   Overcast
10:52 PM 46.9 °F - 45.0 °F 93% 29.81 in 10.0 mi SSE 6.9 mph - N/A   Overcast
11:52 PM 46.9 °F - 46.0 °F 97% 29.79 in 10.0 mi South 9.2 mph - 0.01 in Rain Light Rain